Location: Unspecified
(0.0000°N, 0.0000°E)
Time: 23:38:50
(UTC+00:00)

Vanguard 1 - Pass Details

Date: 10 October 2020
Orbit: 649 x 3833 km, 34.3° (Epoch: 28 October)

Event Time Altitude Azimuth Distance (km) Brightness Sun altitude
Rises 05:00:58 0° 255° (WSW) 3,654 - -11.4°
Exits shadow 05:03:05 - 243° (WSW) 3,246 12.2 -10.9°
Reaches altitude 10° 05:04:23 10° 233° (SW) 3,082 12.2 -10.6°
Maximum altitude 05:09:04 17° 195° (SSW) 3,139 12.6 -9.4°
Drops below altitude 10° 05:15:28 10° 160° (SSE) 4,403 13.8 -7.8°
Sets 05:22:11 0° 142° (SE) 6,157 14.9 -6.1°
